Year,Month,Day,Hour,Minute,Value (Times are PST for windgust in km/hr)
2006,11,11,00,00,3.20
2006,11,11,00,01,1.60
2006,11,11,00,02,1.60
2006,11,11,00,03,6.40
2006,11,11,00,04,6.40
2006,11,11,00,05,14.50
2006,11,11,00,06,16.10
2006,11,11,00,07,11.30
2006,11,11,00,08,6.40
2006,11,11,00,09,9.60
2006,11,11,00,10,14.50
2006,11,11,00,11,4.80
2006,11,11,00,12,1.60
2006,11,11,00,13,1.60
2006,11,11,00,14,6.40
2006,11,11,00,15,8.10
2006,11,11,00,16,0.00
2006,11,11,00,17,4.80
2006,11,11,00,18,8.10
2006,11,11,00,19,4.80
2006,11,11,00,20,3.20
2006,11,11,00,21,6.40
2006,11,11,00,22,6.40
2006,11,11,00,23,1.60
2006,11,11,00,24,0.00
2006,11,11,00,25,8.10
2006,11,11,00,26,3.20
2006,11,11,00,27,0.00
2006,11,11,00,28,3.20
2006,11,11,00,29,1.60
2006,11,11,00,30,1.60
2006,11,11,00,31,3.20
2006,11,11,00,32,4.80
2006,11,11,00,33,4.80
2006,11,11,00,34,1.60
2006,11,11,00,35,1.60
2006,11,11,00,36,1.60
2006,11,11,00,37,1.60
2006,11,11,00,38,8.10
2006,11,11,00,39,4.80
2006,11,11,00,40,1.60
2006,11,11,00,41,4.80
2006,11,11,00,42,4.80
2006,11,11,00,43,4.80
2006,11,11,00,44,4.80
2006,11,11,00,45,3.20
2006,11,11,00,46,3.20
2006,11,11,00,47,1.60
2006,11,11,00,48,3.20
2006,11,11,00,49,3.20
2006,11,11,00,50,0.00
2006,11,11,00,51,4.80
2006,11,11,00,52,3.20
2006,11,11,00,53,0.00
2006,11,11,00,54,3.20
2006,11,11,00,55,4.80
2006,11,11,00,56,0.00
2006,11,11,00,57,4.80
2006,11,11,00,58,3.20
2006,11,11,00,59,1.60
2006,11,11,01,00,0.00
2006,11,11,01,01,3.20
2006,11,11,01,02,1.60
2006,11,11,01,03,3.20
2006,11,11,01,04,4.80
2006,11,11,01,05,3.20
2006,11,11,01,06,4.80
2006,11,11,01,07,6.40
2006,11,11,01,08,4.80
2006,11,11,01,09,3.20
2006,11,11,01,10,3.20
2006,11,11,01,11,1.60
2006,11,11,01,12,3.20
2006,11,11,01,13,1.60
2006,11,11,01,14,4.80
2006,11,11,01,15,3.20
2006,11,11,01,16,3.20
2006,11,11,01,17,4.80
2006,11,11,01,18,4.80
2006,11,11,01,19,6.40
2006,11,11,01,20,4.80
2006,11,11,01,21,4.80
2006,11,11,01,22,1.60
2006,11,11,01,23,8.10
2006,11,11,01,24,4.80
2006,11,11,01,25,0.00
2006,11,11,01,26,3.20
2006,11,11,01,27,3.20
2006,11,11,01,28,1.60
2006,11,11,01,29,8.10
2006,11,11,01,30,3.20
2006,11,11,01,31,3.20
2006,11,11,01,32,4.80
2006,11,11,01,33,1.60
2006,11,11,01,34,0.00
2006,11,11,01,35,8.10
2006,11,11,01,36,0.00
2006,11,11,01,37,0.00
2006,11,11,01,38,0.00
2006,11,11,01,39,4.80
2006,11,11,01,40,4.80
2006,11,11,01,41,6.40
2006,11,11,01,42,4.80
2006,11,11,01,43,6.40
2006,11,11,01,44,3.20
2006,11,11,01,45,4.80
2006,11,11,01,46,6.40
2006,11,11,01,47,4.80
2006,11,11,01,48,4.80
2006,11,11,01,49,1.60
2006,11,11,01,50,3.20
2006,11,11,01,51,1.60
2006,11,11,01,52,3.20
2006,11,11,01,53,3.20
2006,11,11,01,54,3.20
2006,11,11,01,55,0.00
2006,11,11,01,56,4.80
2006,11,11,01,57,6.40
2006,11,11,01,58,11.30
2006,11,11,01,59,9.60
2006,11,11,02,00,19.30
2006,11,11,02,01,9.60
2006,11,11,02,02,17.70
2006,11,11,02,03,16.10
2006,11,11,02,04,9.60
2006,11,11,02,05,6.40
2006,11,11,02,06,4.80
2006,11,11,02,07,4.80
2006,11,11,02,08,3.20
2006,11,11,02,09,4.80
2006,11,11,02,10,9.60
2006,11,11,02,11,6.40
2006,11,11,02,12,0.00
2006,11,11,02,13,1.60
2006,11,11,02,14,1.60
2006,11,11,02,15,3.20
2006,11,11,02,16,6.40
2006,11,11,02,17,9.60
2006,11,11,02,18,8.10
2006,11,11,02,19,8.10
2006,11,11,02,20,8.10
2006,11,11,02,21,14.50
2006,11,11,02,22,9.60
2006,11,11,02,23,9.60
2006,11,11,02,24,6.40
2006,11,11,02,25,6.40
2006,11,11,02,26,6.40
2006,11,11,02,27,4.80
2006,11,11,02,28,3.20
2006,11,11,02,29,3.20
2006,11,11,02,30,6.40
2006,11,11,02,31,6.40
2006,11,11,02,32,1.60
2006,11,11,02,33,0.00
2006,11,11,02,34,0.00
2006,11,11,02,35,0.00
2006,11,11,02,36,0.00
2006,11,11,02,37,0.00
2006,11,11,02,38,0.00
2006,11,11,02,39,0.00
2006,11,11,02,40,0.00
2006,11,11,02,41,0.00
2006,11,11,02,42,0.00
2006,11,11,02,43,0.00
2006,11,11,02,44,0.00
2006,11,11,02,45,0.00
2006,11,11,02,46,0.00
2006,11,11,02,47,1.60
2006,11,11,02,48,0.00
2006,11,11,02,49,0.00
2006,11,11,02,50,0.00
2006,11,11,02,51,0.00
2006,11,11,02,52,0.00
2006,11,11,02,53,0.00
2006,11,11,02,54,0.00
2006,11,11,02,55,3.20
2006,11,11,02,56,3.20
2006,11,11,02,57,3.20
2006,11,11,02,58,0.00
2006,11,11,02,59,1.60
2006,11,11,03,00,1.60
2006,11,11,03,01,3.20
2006,11,11,03,02,6.40
2006,11,11,03,03,11.30
2006,11,11,03,04,11.30
2006,11,11,03,05,12.90
2006,11,11,03,06,6.40
2006,11,11,03,07,4.80
2006,11,11,03,08,11.30
2006,11,11,03,09,11.30
2006,11,11,03,10,14.50
2006,11,11,03,11,16.10
2006,11,11,03,12,17.70
2006,11,11,03,13,11.30
2006,11,11,03,14,6.40
2006,11,11,03,15,8.10
2006,11,11,03,16,11.30
2006,11,11,03,17,19.30
2006,11,11,03,18,17.70
2006,11,11,03,19,12.90
2006,11,11,03,20,16.10
2006,11,11,03,21,17.70
2006,11,11,03,22,20.90
2006,11,11,03,23,16.10
2006,11,11,03,24,17.70
2006,11,11,03,25,17.70
2006,11,11,03,26,20.90
2006,11,11,03,27,11.30
2006,11,11,03,28,14.50
2006,11,11,03,29,17.70
2006,11,11,03,30,9.60
2006,11,11,03,31,6.40
2006,11,11,03,32,6.40
2006,11,11,03,33,14.50
2006,11,11,03,34,8.10
2006,11,11,03,35,6.40
2006,11,11,03,36,17.70
2006,11,11,03,37,9.60
2006,11,11,03,38,9.60
2006,11,11,03,39,11.30
2006,11,11,03,40,8.10
2006,11,11,03,41,19.30
2006,11,11,03,42,9.60
2006,11,11,03,43,11.30
2006,11,11,03,44,16.10
2006,11,11,03,45,17.70
2006,11,11,03,46,8.10
2006,11,11,03,47,8.10
2006,11,11,03,48,11.30
2006,11,11,03,49,8.10
2006,11,11,03,50,1.60
2006,11,11,03,51,6.40
2006,11,11,03,52,8.10
2006,11,11,03,53,9.60
2006,11,11,03,54,6.40
2006,11,11,03,55,4.80
2006,11,11,03,56,3.20
2006,11,11,03,57,4.80
2006,11,11,03,58,6.40
2006,11,11,03,59,6.40
2006,11,11,04,00,6.40
2006,11,11,04,01,9.60
2006,11,11,04,02,9.60
2006,11,11,04,03,4.80
2006,11,11,04,04,9.60
2006,11,11,04,05,16.10
2006,11,11,04,06,11.30
2006,11,11,04,07,9.60
2006,11,11,04,08,6.40
2006,11,11,04,09,6.40
2006,11,11,04,10,16.10
2006,11,11,04,11,14.50
2006,11,11,04,12,11.30
2006,11,11,04,13,17.70
2006,11,11,04,14,19.30
2006,11,11,04,15,20.90
2006,11,11,04,16,20.90
2006,11,11,04,17,19.30
2006,11,11,04,18,24.20
2006,11,11,04,19,17.70
2006,11,11,04,20,16.10
2006,11,11,04,21,22.50
2006,11,11,04,22,27.40
2006,11,11,04,23,16.10
2006,11,11,04,24,16.10
2006,11,11,04,25,20.90
2006,11,11,04,26,16.10
2006,11,11,04,27,14.50
2006,11,11,04,28,22.50
2006,11,11,04,29,14.50
2006,11,11,04,30,22.50
2006,11,11,04,31,17.70
2006,11,11,04,32,9.60
2006,11,11,04,33,6.40
2006,11,11,04,34,3.20
2006,11,11,04,35,8.10
2006,11,11,04,36,8.10
2006,11,11,04,37,8.10
2006,11,11,04,38,9.60
2006,11,11,04,39,9.60
2006,11,11,04,40,9.60
2006,11,11,04,41,8.10
2006,11,11,04,42,6.40
2006,11,11,04,43,6.40
2006,11,11,04,44,6.40
2006,11,11,04,45,6.40
2006,11,11,04,46,8.10
2006,11,11,04,47,8.10
2006,11,11,04,48,4.80
2006,11,11,04,49,6.40
2006,11,11,04,50,6.40
2006,11,11,04,51,4.80
2006,11,11,04,52,6.40
2006,11,11,04,53,8.10
2006,11,11,04,54,6.40
2006,11,11,04,55,6.40
2006,11,11,04,56,6.40
2006,11,11,04,57,3.20
2006,11,11,04,58,4.80
2006,11,11,04,59,4.80
2006,11,11,05,00,4.80
2006,11,11,05,01,4.80
2006,11,11,05,02,6.40
2006,11,11,05,03,3.20
2006,11,11,05,04,0.00
2006,11,11,05,05,3.20
2006,11,11,05,06,0.00
2006,11,11,05,07,0.00
2006,11,11,05,08,0.00
2006,11,11,05,09,3.20
2006,11,11,05,10,0.00
2006,11,11,05,11,0.00
2006,11,11,05,12,1.60
2006,11,11,05,13,0.00
2006,11,11,05,14,1.60
2006,11,11,05,15,3.20
2006,11,11,05,16,1.60
2006,11,11,05,17,3.20
2006,11,11,05,18,3.20
2006,11,11,05,19,1.60
2006,11,11,05,20,1.60
2006,11,11,05,21,1.60
2006,11,11,05,22,1.60
2006,11,11,05,23,3.20
2006,11,11,05,24,0.00
2006,11,11,05,25,3.20
2006,11,11,05,26,3.20
2006,11,11,05,27,1.60
2006,11,11,05,28,1.60
2006,11,11,05,29,0.00
2006,11,11,05,30,1.60
2006,11,11,05,31,3.20
2006,11,11,05,32,1.60
2006,11,11,05,33,3.20
2006,11,11,05,34,0.00
2006,11,11,05,35,0.00
2006,11,11,05,36,1.60
2006,11,11,05,37,1.60
2006,11,11,05,38,0.00
2006,11,11,05,39,1.60
2006,11,11,05,40,0.00
2006,11,11,05,41,1.60
2006,11,11,05,42,0.00
2006,11,11,05,43,0.00
2006,11,11,05,44,0.00
2006,11,11,05,45,0.00
2006,11,11,05,46,1.60
2006,11,11,05,47,0.00
2006,11,11,05,48,0.00
2006,11,11,05,49,0.00
2006,11,11,05,50,0.00
2006,11,11,05,51,4.80
2006,11,11,05,52,3.20
2006,11,11,05,53,0.00
2006,11,11,05,54,0.00
2006,11,11,05,55,0.00
2006,11,11,05,56,0.00
2006,11,11,05,57,0.00
2006,11,11,05,58,1.60
2006,11,11,05,59,0.00
2006,11,11,06,00,0.00
2006,11,11,06,01,0.00
2006,11,11,06,02,0.00
2006,11,11,06,03,0.00
2006,11,11,06,04,0.00
2006,11,11,06,05,0.00
2006,11,11,06,06,0.00
2006,11,11,06,07,0.00
2006,11,11,06,08,0.00
2006,11,11,06,09,0.00
2006,11,11,06,10,0.00
2006,11,11,06,11,0.00
2006,11,11,06,12,1.60
2006,11,11,06,13,1.60
2006,11,11,06,14,0.00
2006,11,11,06,15,0.00
2006,11,11,06,16,0.00
2006,11,11,06,17,0.00
2006,11,11,06,18,0.00
2006,11,11,06,19,0.00
2006,11,11,06,20,0.00
2006,11,11,06,21,0.00
2006,11,11,06,22,0.00
2006,11,11,06,23,0.00
2006,11,11,06,24,0.00
2006,11,11,06,25,0.00
2006,11,11,06,26,0.00
2006,11,11,06,27,0.00
2006,11,11,06,28,0.00
2006,11,11,06,29,0.00
2006,11,11,06,30,1.60
2006,11,11,06,31,1.60
2006,11,11,06,32,0.00
2006,11,11,06,33,0.00
2006,11,11,06,34,3.20
2006,11,11,06,35,4.80
2006,11,11,06,36,6.40
2006,11,11,06,37,6.40
2006,11,11,06,38,3.20
2006,11,11,06,39,0.00
2006,11,11,06,40,1.60
2006,11,11,06,41,0.00
2006,11,11,06,42,0.00
2006,11,11,06,43,1.60
2006,11,11,06,44,1.60
2006,11,11,06,45,3.20
2006,11,11,06,46,4.80
2006,11,11,06,47,1.60
2006,11,11,06,48,3.20
2006,11,11,06,49,3.20
2006,11,11,06,50,4.80
2006,11,11,06,51,3.20
2006,11,11,06,52,1.60
2006,11,11,06,53,1.60
2006,11,11,06,54,4.80
2006,11,11,06,55,4.80
2006,11,11,06,56,3.20
2006,11,11,06,57,4.80
2006,11,11,06,58,1.60
2006,11,11,06,59,0.00
2006,11,11,07,00,4.80
2006,11,11,07,01,0.00
2006,11,11,07,02,3.20
2006,11,11,07,03,4.80
2006,11,11,07,04,3.20
2006,11,11,07,05,1.60
2006,11,11,07,06,4.80
2006,11,11,07,07,4.80
2006,11,11,07,08,4.80
2006,11,11,07,09,3.20
2006,11,11,07,10,3.20
2006,11,11,07,11,3.20
2006,11,11,07,12,1.60
2006,11,11,07,13,3.20
2006,11,11,07,14,3.20
2006,11,11,07,15,4.80
2006,11,11,07,16,4.80
2006,11,11,07,17,3.20
2006,11,11,07,18,4.80
2006,11,11,07,19,4.80
2006,11,11,07,20,4.80
2006,11,11,07,21,1.60
2006,11,11,07,22,1.60
2006,11,11,07,23,3.20
2006,11,11,07,24,0.00
2006,11,11,07,25,1.60
2006,11,11,07,26,0.00
2006,11,11,07,27,0.00
2006,11,11,07,28,1.60
2006,11,11,07,29,0.00
2006,11,11,07,30,4.80
2006,11,11,07,31,4.80
2006,11,11,07,32,1.60
2006,11,11,07,33,1.60
2006,11,11,07,34,3.20
2006,11,11,07,35,4.80
2006,11,11,07,36,1.60
2006,11,11,07,37,1.60
2006,11,11,07,38,4.80
2006,11,11,07,39,3.20
2006,11,11,07,40,1.60
2006,11,11,07,41,1.60
2006,11,11,07,42,4.80
2006,11,11,07,43,4.80
2006,11,11,07,44,3.20
2006,11,11,07,45,3.20
2006,11,11,07,46,4.80
2006,11,11,07,47,3.20
2006,11,11,07,48,4.80
2006,11,11,07,49,6.40
2006,11,11,07,50,3.20
2006,11,11,07,51,0.00
2006,11,11,07,52,3.20
2006,11,11,07,53,3.20
2006,11,11,07,54,4.80
2006,11,11,07,55,1.60
2006,11,11,07,56,1.60
2006,11,11,07,57,4.80
2006,11,11,07,58,3.20
2006,11,11,07,59,6.40
2006,11,11,08,00,4.80
2006,11,11,08,01,4.80
2006,11,11,08,02,6.40
2006,11,11,08,03,3.20
2006,11,11,08,04,6.40
2006,11,11,08,05,16.10
2006,11,11,08,06,9.60
2006,11,11,08,07,16.10
2006,11,11,08,08,6.40
2006,11,11,08,09,4.80
2006,11,11,08,10,3.20
2006,11,11,08,11,6.40
2006,11,11,08,12,8.10
2006,11,11,08,13,8.10
2006,11,11,08,14,6.40
2006,11,11,08,15,4.80
2006,11,11,08,16,3.20
2006,11,11,08,17,3.20
2006,11,11,08,18,3.20
2006,11,11,08,19,3.20
2006,11,11,08,20,11.30
2006,11,11,08,21,12.90
2006,11,11,08,22,9.60
2006,11,11,08,23,6.40
2006,11,11,08,24,1.60
2006,11,11,08,25,3.20
2006,11,11,08,26,0.00
2006,11,11,08,27,0.00
2006,11,11,08,28,4.80
2006,11,11,08,29,4.80
2006,11,11,08,30,4.80
2006,11,11,08,31,8.10
2006,11,11,08,32,4.80
2006,11,11,08,33,0.00
2006,11,11,08,34,4.80
2006,11,11,08,35,6.40
2006,11,11,08,36,6.40
2006,11,11,08,37,3.20
2006,11,11,08,38,4.80
2006,11,11,08,39,8.10
2006,11,11,08,40,11.30
2006,11,11,08,41,3.20
2006,11,11,08,42,8.10
2006,11,11,08,43,4.80
2006,11,11,08,44,6.40
2006,11,11,08,45,11.30
2006,11,11,08,46,12.90
2006,11,11,08,47,4.80
2006,11,11,08,48,9.60
2006,11,11,08,49,6.40
2006,11,11,08,50,14.50
2006,11,11,08,51,6.40
2006,11,11,08,52,6.40
2006,11,11,08,53,6.40
2006,11,11,08,54,11.30
2006,11,11,08,55,9.60
2006,11,11,08,56,8.10
2006,11,11,08,57,8.10
2006,11,11,08,58,4.80
2006,11,11,08,59,9.60
2006,11,11,09,00,11.30
2006,11,11,09,01,6.40
2006,11,11,09,02,6.40
2006,11,11,09,03,6.40
2006,11,11,09,04,11.30
2006,11,11,09,05,6.40
2006,11,11,09,06,6.40
2006,11,11,09,07,1.60
2006,11,11,09,08,1.60
2006,11,11,09,09,11.30
2006,11,11,09,10,9.60
2006,11,11,09,11,3.20
2006,11,11,09,12,6.40
2006,11,11,09,13,9.60
2006,11,11,09,14,3.20
2006,11,11,09,15,6.40
2006,11,11,09,16,6.40
2006,11,11,09,17,8.10
2006,11,11,09,18,6.40
2006,11,11,09,19,8.10
2006,11,11,09,20,4.80
2006,11,11,09,21,1.60
2006,11,11,09,22,0.00
2006,11,11,09,23,4.80
2006,11,11,09,24,1.60
2006,11,11,09,25,9.60
2006,11,11,09,26,4.80
2006,11,11,09,27,0.00
2006,11,11,09,28,1.60
2006,11,11,09,29,0.00
2006,11,11,09,30,3.20
2006,11,11,09,31,1.60
2006,11,11,09,32,0.00
2006,11,11,09,33,0.00
2006,11,11,09,34,4.80
2006,11,11,09,35,6.40
2006,11,11,09,36,3.20
2006,11,11,09,37,3.20
2006,11,11,09,38,0.00
2006,11,11,09,39,1.60
2006,11,11,09,40,1.60
2006,11,11,09,41,6.40
2006,11,11,09,42,6.40
2006,11,11,09,43,8.10
2006,11,11,09,44,4.80
2006,11,11,09,45,3.20
2006,11,11,09,46,3.20
2006,11,11,09,47,4.80
2006,11,11,09,48,8.10
2006,11,11,09,49,4.80
2006,11,11,09,50,4.80
2006,11,11,09,51,11.30
2006,11,11,09,52,11.30
2006,11,11,09,53,4.80
2006,11,11,09,54,9.60
2006,11,11,09,55,9.60
2006,11,11,09,56,1.60
2006,11,11,09,57,4.80
2006,11,11,09,58,6.40
2006,11,11,09,59,11.30
2006,11,11,10,00,9.60
2006,11,11,10,01,8.10
2006,11,11,10,02,6.40
2006,11,11,10,03,8.10
2006,11,11,10,04,6.40
2006,11,11,10,05,17.70
2006,11,11,10,06,8.10
2006,11,11,10,07,6.40
2006,11,11,10,08,9.60
2006,11,11,10,09,11.30
2006,11,11,10,10,9.60
2006,11,11,10,11,11.30
2006,11,11,10,12,4.80
2006,11,11,10,13,8.10
2006,11,11,10,14,4.80
2006,11,11,10,15,4.80
2006,11,11,10,16,14.50
2006,11,11,10,17,14.50
2006,11,11,10,18,1.60
2006,11,11,10,19,12.90
2006,11,11,10,20,16.10
2006,11,11,10,21,16.10
2006,11,11,10,22,17.70
2006,11,11,10,23,12.90
2006,11,11,10,24,32.20
2006,11,11,10,25,16.10
2006,11,11,10,26,11.30
2006,11,11,10,27,4.80
2006,11,11,10,28,17.70
2006,11,11,10,29,17.70
2006,11,11,10,30,20.90
2006,11,11,10,31,27.40
2006,11,11,10,32,20.90
2006,11,11,10,33,16.10
2006,11,11,10,34,16.10
2006,11,11,10,35,20.90
2006,11,11,10,36,14.50
2006,11,11,10,37,16.10
2006,11,11,10,38,11.30
2006,11,11,10,39,8.10
2006,11,11,10,40,11.30
2006,11,11,10,41,22.50
2006,11,11,10,42,16.10
2006,11,11,10,43,19.30
2006,11,11,10,44,11.30
2006,11,11,10,45,4.80
2006,11,11,10,46,11.30
2006,11,11,10,47,19.30
2006,11,11,10,48,14.50
2006,11,11,10,49,11.30
2006,11,11,10,50,14.50
2006,11,11,10,51,11.30
2006,11,11,10,52,16.10
2006,11,11,10,53,17.70
2006,11,11,10,54,16.10
2006,11,11,10,55,22.50
2006,11,11,10,56,9.60
2006,11,11,10,57,3.20
2006,11,11,10,58,1.60
2006,11,11,10,59,8.10
2006,11,11,11,00,8.10
2006,11,11,11,01,8.10
2006,11,11,11,02,8.10
2006,11,11,11,03,9.60
2006,11,11,11,04,4.80
2006,11,11,11,05,6.40
2006,11,11,11,06,14.50
2006,11,11,11,07,8.10
2006,11,11,11,08,16.10
2006,11,11,11,09,8.10
2006,11,11,11,10,8.10
2006,11,11,11,11,6.40
2006,11,11,11,12,9.60
2006,11,11,11,13,9.60
2006,11,11,11,14,8.10
2006,11,11,11,15,6.40
2006,11,11,11,16,8.10
2006,11,11,11,17,9.60
2006,11,11,11,18,6.40
2006,11,11,11,19,9.60
2006,11,11,11,20,9.60
2006,11,11,11,21,16.10
2006,11,11,11,22,4.80
2006,11,11,11,23,16.10
2006,11,11,11,24,11.30
2006,11,11,11,25,6.40
2006,11,11,11,26,4.80
2006,11,11,11,27,11.30
2006,11,11,11,28,9.60
2006,11,11,11,29,9.60
2006,11,11,11,30,4.80
2006,11,11,11,31,4.80
2006,11,11,11,32,8.10
2006,11,11,11,33,6.40
2006,11,11,11,34,4.80
2006,11,11,11,35,6.40
2006,11,11,11,36,11.30
2006,11,11,11,37,8.10
2006,11,11,11,38,8.10
2006,11,11,11,39,8.10
2006,11,11,11,40,6.40
2006,11,11,11,41,8.10
2006,11,11,11,42,8.10
2006,11,11,11,43,8.10
2006,11,11,11,44,16.10
2006,11,11,11,45,3.20
2006,11,11,11,46,19.30
2006,11,11,11,47,19.30
2006,11,11,11,48,9.60
2006,11,11,11,49,11.30
2006,11,11,11,50,8.10
2006,11,11,11,51,6.40
2006,11,11,11,52,6.40
2006,11,11,11,53,14.50
2006,11,11,11,54,12.90
2006,11,11,11,55,14.50
2006,11,11,11,56,8.10
2006,11,11,11,57,1.60
2006,11,11,11,58,6.40
2006,11,11,11,59,11.30
2006,11,11,12,00,4.80
2006,11,11,12,01,14.50
2006,11,11,12,02,12.90
2006,11,11,12,03,8.10
2006,11,11,12,04,9.60
2006,11,11,12,05,9.60
2006,11,11,12,06,16.10
2006,11,11,12,07,11.30
2006,11,11,12,08,16.10
2006,11,11,12,09,9.60
2006,11,11,12,10,16.10
2006,11,11,12,11,17.70
2006,11,11,12,12,11.30
2006,11,11,12,13,16.10
2006,11,11,12,14,20.90
2006,11,11,12,15,16.10
2006,11,11,12,16,19.30
2006,11,11,12,17,9.60
2006,11,11,12,18,9.60
2006,11,11,12,19,19.30
2006,11,11,12,20,11.30
2006,11,11,12,21,11.30
2006,11,11,12,22,22.50
2006,11,11,12,23,24.20
2006,11,11,12,24,16.10
2006,11,11,12,25,24.20
2006,11,11,12,26,19.30
2006,11,11,12,27,24.20
2006,11,11,12,28,8.10
2006,11,11,12,29,14.50
2006,11,11,12,30,20.90
2006,11,11,12,31,17.70
2006,11,11,12,32,6.40
2006,11,11,12,33,20.90
2006,11,11,12,34,6.40
2006,11,11,12,35,6.40
2006,11,11,12,36,17.70
2006,11,11,12,37,16.10
2006,11,11,12,38,22.50
2006,11,11,12,39,17.70
2006,11,11,12,40,17.70
2006,11,11,12,41,14.50
2006,11,11,12,42,14.50
2006,11,11,12,43,11.30
2006,11,11,12,44,4.80
2006,11,11,12,45,11.30
2006,11,11,12,46,24.20
2006,11,11,12,47,11.30
2006,11,11,12,48,24.20
2006,11,11,12,49,29.00
2006,11,11,12,50,22.50
2006,11,11,12,51,19.30
2006,11,11,12,52,17.70
2006,11,11,12,53,16.10
2006,11,11,12,54,19.30
2006,11,11,12,55,19.30
2006,11,11,12,56,24.20
2006,11,11,12,57,14.50
2006,11,11,12,58,17.70
2006,11,11,12,59,19.30
2006,11,11,13,00,24.20
2006,11,11,13,01,25.70
2006,11,11,13,02,32.20
2006,11,11,13,03,22.50
2006,11,11,13,04,6.40
2006,11,11,13,05,20.90
2006,11,11,13,06,11.30
2006,11,11,13,07,16.10
2006,11,11,13,08,9.60
2006,11,11,13,09,14.50
2006,11,11,13,10,20.90
2006,11,11,13,11,17.70
2006,11,11,13,12,19.30
2006,11,11,13,13,8.10
2006,11,11,13,14,17.70
2006,11,11,13,15,8.10
2006,11,11,13,16,22.50
2006,11,11,13,17,19.30
2006,11,11,13,18,8.10
2006,11,11,13,19,19.30
2006,11,11,13,20,19.30
2006,11,11,13,21,22.50
2006,11,11,13,22,33.80
2006,11,11,13,23,33.80
2006,11,11,13,24,25.70
2006,11,11,13,25,17.70
2006,11,11,13,26,6.40
2006,11,11,13,27,16.10
2006,11,11,13,28,4.80
2006,11,11,13,29,22.50
2006,11,11,13,30,17.70
2006,11,11,13,31,22.50
2006,11,11,13,32,17.70
2006,11,11,13,33,16.10
2006,11,11,13,34,20.90
2006,11,11,13,35,32.20
2006,11,11,13,36,25.70
2006,11,11,13,37,33.80
2006,11,11,13,38,25.70
2006,11,11,13,39,25.70
2006,11,11,13,40,27.40
2006,11,11,13,41,32.20
2006,11,11,13,42,27.40
2006,11,11,13,43,29.00
2006,11,11,13,44,19.30
2006,11,11,13,45,25.70
2006,11,11,13,46,11.30
2006,11,11,13,47,11.30
2006,11,11,13,48,11.30
2006,11,11,13,49,14.50
2006,11,11,13,50,14.50
2006,11,11,13,51,17.70
2006,11,11,13,52,16.10
2006,11,11,13,53,8.10
2006,11,11,13,54,6.40
2006,11,11,13,55,11.30
2006,11,11,13,56,8.10
2006,11,11,13,57,4.80
2006,11,11,13,58,17.70
2006,11,11,13,59,6.40
2006,11,11,14,00,12.90
2006,11,11,14,01,6.40
2006,11,11,14,02,3.20
2006,11,11,14,03,9.60
2006,11,11,14,04,8.10
2006,11,11,14,05,9.60
2006,11,11,14,06,9.60
2006,11,11,14,07,6.40
2006,11,11,14,08,4.80
2006,11,11,14,09,12.90
2006,11,11,14,10,12.90
2006,11,11,14,11,9.60
2006,11,11,14,12,8.10
2006,11,11,14,13,3.20
2006,11,11,14,14,9.60
2006,11,11,14,15,8.10
2006,11,11,14,16,16.10
2006,11,11,14,17,20.90
2006,11,11,14,18,9.60
2006,11,11,14,19,9.60
2006,11,11,14,20,8.10
2006,11,11,14,21,9.60
2006,11,11,14,22,6.40
2006,11,11,14,23,8.10
2006,11,11,14,24,8.10
2006,11,11,14,25,16.10
2006,11,11,14,26,8.10
2006,11,11,14,27,6.40
2006,11,11,14,28,6.40
2006,11,11,14,29,8.10
2006,11,11,14,30,17.70
2006,11,11,14,31,11.30
2006,11,11,14,32,16.10
2006,11,11,14,33,24.20
2006,11,11,14,34,6.40
2006,11,11,14,35,17.70
2006,11,11,14,36,27.40
2006,11,11,14,37,32.20
2006,11,11,14,38,19.30
2006,11,11,14,39,22.50
2006,11,11,14,40,17.70
2006,11,11,14,41,25.70
2006,11,11,14,42,16.10
2006,11,11,14,43,22.50
2006,11,11,14,44,8.10
2006,11,11,14,45,19.30
2006,11,11,14,46,16.10
2006,11,11,14,47,9.60
2006,11,11,14,48,9.60
2006,11,11,14,49,17.70
2006,11,11,14,50,14.50
2006,11,11,14,51,16.10
2006,11,11,14,52,9.60
2006,11,11,14,53,24.20
2006,11,11,14,54,22.50
2006,11,11,14,55,11.30
2006,11,11,14,56,30.60
2006,11,11,14,57,16.10
2006,11,11,14,58,16.10
2006,11,11,14,59,16.10
2006,11,11,15,00,16.10
2006,11,11,15,01,6.40
2006,11,11,15,02,16.10
2006,11,11,15,03,19.30
2006,11,11,15,04,12.90
2006,11,11,15,05,17.70
2006,11,11,15,06,11.30
2006,11,11,15,07,8.10
2006,11,11,15,08,8.10
2006,11,11,15,09,14.50
2006,11,11,15,10,14.50
2006,11,11,15,11,14.50
2006,11,11,15,12,9.60
2006,11,11,15,13,17.70
2006,11,11,15,14,22.50
2006,11,11,15,15,8.10
2006,11,11,15,16,29.00
2006,11,11,15,17,29.00
2006,11,11,15,18,25.70
2006,11,11,15,19,11.30
2006,11,11,15,20,24.20
2006,11,11,15,21,27.40
2006,11,11,15,22,24.20
2006,11,11,15,23,29.00
2006,11,11,15,24,9.60
2006,11,11,15,25,17.70
2006,11,11,15,26,20.90
2006,11,11,15,27,9.60
2006,11,11,15,28,30.60
2006,11,11,15,29,17.70
2006,11,11,15,30,19.30
2006,11,11,15,31,24.20
2006,11,11,15,32,29.00
2006,11,11,15,33,20.90
2006,11,11,15,34,20.90
2006,11,11,15,35,9.60
2006,11,11,15,36,22.50
2006,11,11,15,37,20.90
2006,11,11,15,38,27.40
2006,11,11,15,39,25.70
2006,11,11,15,40,24.20
2006,11,11,15,41,27.40
2006,11,11,15,42,33.80
2006,11,11,15,43,25.70
2006,11,11,15,44,24.20
2006,11,11,15,45,29.00
2006,11,11,15,46,30.60
2006,11,11,15,47,19.30
2006,11,11,15,48,14.50
2006,11,11,15,49,25.70
2006,11,11,15,50,20.90
2006,11,11,15,51,22.50
2006,11,11,15,52,22.50
2006,11,11,15,53,19.30
2006,11,11,15,54,17.70
2006,11,11,15,55,20.90
2006,11,11,15,56,16.10
2006,11,11,15,57,12.90
2006,11,11,15,58,6.40
2006,11,11,15,59,19.30
2006,11,11,16,00,22.50
2006,11,11,16,01,9.60
2006,11,11,16,02,3.20
2006,11,11,16,03,25.70
2006,11,11,16,04,9.60
2006,11,11,16,05,9.60
2006,11,11,16,06,16.10
2006,11,11,16,07,14.50
2006,11,11,16,08,17.70
2006,11,11,16,09,6.40
2006,11,11,16,10,6.40
2006,11,11,16,11,6.40
2006,11,11,16,12,22.50
2006,11,11,16,13,8.10
2006,11,11,16,14,8.10
2006,11,11,16,15,8.10
2006,11,11,16,16,12.90
2006,11,11,16,17,17.70
2006,11,11,16,18,8.10
2006,11,11,16,19,16.10
2006,11,11,16,20,9.60
2006,11,11,16,21,11.30
2006,11,11,16,22,9.60
2006,11,11,16,23,9.60
2006,11,11,16,24,9.60
2006,11,11,16,25,19.30
2006,11,11,16,26,8.10
2006,11,11,16,27,9.60
2006,11,11,16,28,14.50
2006,11,11,16,29,11.30
2006,11,11,16,30,6.40
2006,11,11,16,31,3.20
2006,11,11,16,32,6.40
2006,11,11,16,33,4.80
2006,11,11,16,34,8.10
2006,11,11,16,35,1.60
2006,11,11,16,36,1.60
2006,11,11,16,37,1.60
2006,11,11,16,38,1.60
2006,11,11,16,39,4.80
2006,11,11,16,40,4.80
2006,11,11,16,41,3.20
2006,11,11,16,42,0.00
2006,11,11,16,43,0.00
2006,11,11,16,44,1.60
2006,11,11,16,45,1.60
2006,11,11,16,46,4.80
2006,11,11,16,47,3.20
2006,11,11,16,48,3.20
2006,11,11,16,49,1.60
2006,11,11,16,50,0.00
2006,11,11,16,51,1.60
2006,11,11,16,52,0.00
2006,11,11,16,53,0.00
2006,11,11,16,54,0.00
2006,11,11,16,55,1.60
2006,11,11,16,56,0.00
2006,11,11,16,57,0.00
2006,11,11,16,58,0.00
2006,11,11,16,59,0.00
2006,11,11,17,00,0.00
2006,11,11,17,01,0.00
2006,11,11,17,02,0.00
2006,11,11,17,03,1.60
2006,11,11,17,04,0.00
2006,11,11,17,05,0.00
2006,11,11,17,06,3.20
2006,11,11,17,07,4.80
2006,11,11,17,08,3.20
2006,11,11,17,09,1.60
2006,11,11,17,10,0.00
2006,11,11,17,11,1.60
2006,11,11,17,12,1.60
2006,11,11,17,13,1.60
2006,11,11,17,14,1.60
2006,11,11,17,15,1.60
2006,11,11,17,16,4.80
2006,11,11,17,17,3.20
2006,11,11,17,18,1.60
2006,11,11,17,19,3.20
2006,11,11,17,20,3.20
2006,11,11,17,21,3.20
2006,11,11,17,22,3.20
2006,11,11,17,23,3.20
2006,11,11,17,24,3.20
2006,11,11,17,25,4.80
2006,11,11,17,26,4.80
2006,11,11,17,27,3.20
2006,11,11,17,28,3.20
2006,11,11,17,29,3.20
2006,11,11,17,30,0.00
2006,11,11,17,31,1.60
2006,11,11,17,32,4.80
2006,11,11,17,33,1.60
2006,11,11,17,34,4.80
2006,11,11,17,35,3.20
2006,11,11,17,36,8.10
2006,11,11,17,37,4.80
2006,11,11,17,38,1.60
2006,11,11,17,39,1.60
2006,11,11,17,40,0.00
2006,11,11,17,41,0.00
2006,11,11,17,42,0.00
2006,11,11,17,43,1.60
2006,11,11,17,44,0.00
2006,11,11,17,45,3.20
2006,11,11,17,46,1.60
2006,11,11,17,47,1.60
2006,11,11,17,48,3.20
2006,11,11,17,49,3.20
2006,11,11,17,50,3.20
2006,11,11,17,51,1.60